User: anonymous   Login
Location: Bourg-d�Oueil
(42.8588°N, 0.4991°E)
Time: 09:19:31
(UTC+00:00)
Language:

Cosmos 1536 Rocket - Orbit

View from above orbital plane
View from above orbital plane
View from above satellite
View from above satellite

Ground track
Ground track

The orbit data is extracted from the following two-line orbital elements,

1 14700U 84013B   21267.71507609  .00000107  00000-0  10099-4 0  9992
2 14700  82.5366 138.7909 0018680 219.6644 201.9925 14.83343600 11233
Epoch (UTC): 24 September 2021 17:09:42
Eccentricity: 0.0018680
inclination: 82.5366°
perigee height: 606 km
apogee height: 632 km
right ascension of ascending node: 138.7909°
argument of perigee: 219.6644°
revolutions per day: 14.83343600
mean anomaly at epoch: 201.9925°
orbit number at epoch: 1123

The dashed part of the orbit path shows where the satellite is in the earth's shadow,  

DLR